Home   Weather   Camarones   Past weeks
Flag for Argentina

Past Weather in Camarones, Chubut, Argentina — Yesterday and Last 2 Weeks

Now
73 °F

Sunny.


Feels Like: 77 °F
Forecast: N/A
Wind: 14 mph from East

Location: Comodoro Rivadavia Aerodrome

Current Time: Oct 19, 2019 at 5:32:17 pm

Latest Report: Oct 19, 2019 at 5:00 pm


Visibility: 10 mi

Pressure: 29.77 "Hg

Humidity: 31%

Dew Point: 41 °F

Location of CamaronesLocation

Past Weather in Camarones — Graph

°F

Camarones Temperature Yesterday

Maximum temperature yesterday: 72 °F (at 3:00 pm)
Minimum temperature yesterday: 52 °F (at 7:00 am)
Average temperature yesterday: 62 °F

High & Low Weather Summary for the Past Weeks

 TemperatureHumidityPressure
High82 °F (Oct 19, 2:00 pm)93% (Oct 17, 1:00 am)30.63 "Hg (Oct 17, 1:00 am)
Low34 °F (Oct 14, 3:00 am)17% (Oct 11, 7:00 pm)29.33 "Hg (Oct 6, 4:00 pm)
Average54 °F51%29.94 "Hg
* Reported Oct 4 4:00 pm — Oct 19 4:00 pm, Camarones. Weather by CustomWeather, © 2019

Note: Actual official high and low records may vary slightly from our data, if they occured in-between our weather recording intervals... More about our weather records

Advertising

Camarones Weather History for the Previous 24 Hours

Scroll right to see more
 ConditionsComfort  
Time TempWeatherWind HumidityBarometerVisibility
4:00 pm
Sat, Oct 19
77 °FPassing clouds.16 mph26%29.80 "HgN/A
3:00 pm81 °FSunny.8 mph32%29.83 "Hg10 mi
2:00 pm82 °FPassing clouds.9 mph21%29.86 "HgN/A
1:00 pm79 °FPassing clouds.10 mph26%29.92 "HgN/A
12:00 pm77 °FPassing clouds.10 mph28%29.95 "HgN/A
11:00 am73 °FPassing clouds.15 mph27%29.95 "HgN/A
10:00 am68 °FPassing clouds.12 mph33%29.98 "HgN/A
9:00 am61 °FPassing clouds.10 mph45%30.01 "HgN/A
8:00 am57 °FPassing clouds.9 mph51%30.01 "HgN/A
7:00 am55 °FSunny.3 mph55%30.01 "Hg10 mi
6:00 am54 °FClear.2 mph58%30.01 "Hg10 mi
5:00 am57 °FClear.8 mph51%30.01 "Hg10 mi
4:00 am59 °FClear.15 mph45%30.04 "Hg10 mi
3:00 am59 °FClear.13 mph51%30.01 "Hg10 mi
2:00 am59 °FClear.8 mph48%30.04 "Hg10 mi
1:00 am59 °FClear.16 mph48%30.07 "Hg10 mi
12:00 am59 °FClear.13 mph48%30.07 "Hg10 mi
11:00 pm
Fri, Oct 18
63 °FClear.8 mph39%30.07 "Hg10 mi
10:00 pm63 °FClear.10 mph42%30.07 "Hg10 mi
9:00 pm64 °FClear.6 mph49%30.04 "Hg10 mi
8:00 pm66 °FClear.8 mph46%30.01 "Hg10 mi
7:00 pm70 °FSunny.10 mph35%30.01 "Hg10 mi
6:00 pm64 °FPassing clouds.10 mph40%30.04 "HgN/A
5:00 pm66 °FSunny.8 mph37%30.04 "Hg10 mi
Weather by CustomWeather, © 2019

See weather overview